Вернуться в каталог

SL-12 R/B(2)

АктивенMEO
NORAD 25900·ROCKET BODY·🇷🇺 Russia

Запущен Sep 6, 1999 с Baikonur Cosmodrome

Loading…

Ближайшие Пролёты (ближайшие 24 часа)

TLE

УстаревающийSource: Space-Track

Эпоха: Aug 29, 2026, 05:43 UTC

1 25900U 99047E   26241.23828310 -.00000320  00000-0  00000+0 0  9992
2 25900  14.5277 358.6259 0101366  64.8798 292.0175  1.00122836 98704

Отслеживайте SL-12 R/B(2) в реальном времени с AllMySat

Download on the App Store